"Pseudo-MPEC" for P10OPmS

Created 2019 Jun 12 21:08:33 UT using Find_Orb

Click here for an explanation of pseudo-MPECs

 
 Astrometry: 
     P10OPmS  C2019 06 08VJqmAstrometry-EB#Mredacted;cO=FL=a4click!ihRhere\=VF51
     P10OPmS  C2019 06 08e`UvXZGLAlnxt1'72SUMA0MHy;dQQ[b=BqmTQ:L`O$Z:+LL_[Zk'F51
     P10OPmS  C2019 06 08(jCGforuN\]E$U8Y`,93mhkM)wy/6Z/explanationp%7So4kb\NF51

Station data:
(F51) Pan-STARRS 1, Haleakala  (N20.707235 W156.255910)  US/Hawaii.
   Observers N. Primak, A. Schultz, S. Watters, J. Thiel, T. Goggia. Measurer
   PS1 Science Consortium. 1.8-m Ritchey-Chrétien + CCD.

Orbital elements:  P10OPmS
   Perihelion 2019 Apr 16.936646 +/- 31.4 TT = 22:28:46 (JD 2458590.436646)
Epoch 2019 Jun  8.0 TT = JDT 2458642.5   Earth MOID: 0.0006   AutoNEOCP
M  43.45304633 +/- 22               (J2000 ecliptic)
n   0.83461864 +/- 0.429            Peri.  133.11307 +/- 60
a   1.11723361 +/- 0.382            Node    69.05754 +/- 60
e   0.1220256 +/- 0.245             Incl.    1.20243 +/- 5.6
P   1.18/431.33d           H 29.0   G  0.15   U 12.2  SR
q 0.98090250 +/- 0.264    Q 1.25356471 +/- 39.2
From 3 observations 2019 June 8 (29.8 min); mean residual 0".14
Residuals in arcseconds: 
190608 F51  .08+  .11-    190608 F51  .17-  .21+    190608 F51  .08+  .11-    

Ephemerides (geocentric):
Date (UTC) HH   RA              Dec         delta   r     elong  mag " sig PA
---- -- -- --  -------------   -----------  ------ ------ -----  --- ---- ---
2019 06 12 21  16 18 59.059   -34 15 41.14  .02085 1.0354 162.3 21.6  40d 166
2019 06 12 22  16 19 26.428   -34 16 48.70  .02092 1.0354 162.3 21.6  40d 166
2019 06 12 23  16 19 53.645   -34 17 55.41  .02098 1.0355 162.3 21.6  40d 166
2019 06 13 00  16 20 20.712   -34 19 01.31  .02105 1.0356 162.4 21.6  40d 166
2019 06 13 01  16 20 47.630   -34 20 06.38  .02111 1.0357 162.4 21.6  40d 166
2019 06 13 02  16 21 14.399   -34 21 10.65  .02118 1.0357 162.4 21.6  40d 166
2019 06 13 03  16 21 41.021   -34 22 14.13  .02125 1.0358 162.5 21.6  41d 160
2019 06 13 04  16 22 07.496   -34 23 16.81  .02131 1.0359 162.5 21.6  41d 160
2019 06 13 05  16 22 33.827   -34 24 18.72  .02138 1.0359 162.6 21.6  41d 159
2019 06 13 06  16 23 00.013   -34 25 19.86  .02144 1.0360 162.6 21.6  41d 159
2019 06 13 07  16 23 26.055   -34 26 20.24  .02151 1.0361 162.6 21.6  41d 159
2019 06 13 08  16 23 51.955   -34 27 19.87  .02158 1.0361 162.7 21.6  41d 159
2019 06 13 09  16 24 17.714   -34 28 18.76  .02164 1.0362 162.7 21.6  41d 159
2019 06 13 10  16 24 43.333   -34 29 16.91  .02171 1.0363 162.7 21.7  41d 159
2019 06 13 11  16 25 08.811   -34 30 14.34  .02177 1.0364 162.8 21.7  42d 159
2019 06 13 12  16 25 34.152   -34 31 11.06  .02184 1.0364 162.8 21.7  42d 159
2019 06 13 13  16 25 59.355   -34 32 07.06  .02191 1.0365 162.8 21.7  42d 159
2019 06 13 14  16 26 24.421   -34 33 02.37  .02197 1.0366 162.9 21.7  42d 159
2019 06 13 15  16 26 49.352   -34 33 56.99  .02204 1.0366 162.9 21.7  42d 159
2019 06 13 16  16 27 14.148   -34 34 50.92  .02211 1.0367 162.9 21.7  42d 159
2019 06 13 17  16 27 38.810   -34 35 44.18  .02217 1.0368 163.0 21.7  42d 159
2019 06 13 18  16 28 03.339   -34 36 36.77  .02224 1.0369 163.0 21.7  42d 159
2019 06 13 19  16 28 27.737   -34 37 28.70  .02231 1.0369 163.0 21.7  42d 159
2019 06 13 20  16 28 52.003   -34 38 19.98  .02237 1.0370 163.0 21.7  42d 159
2019 06 13 21  16 29 16.139   -34 39 10.61  .02244 1.0371 163.1 21.7  42d 159
2019 06 13 22  16 29 40.146   -34 40 00.61  .02251 1.0371 163.1 21.7  42d 159
2019 06 13 23  16 30 04.025   -34 40 49.97  .02257 1.0372 163.1 21.7  42d 159
2019 06 14 00  16 30 27.776   -34 41 38.72  .02264 1.0373 163.2 21.7  42d 159
2019 06 14 01  16 30 51.400   -34 42 26.85  .02271 1.0374 163.2 21.7  42d 159
2019 06 14 02  16 31 14.899   -34 43 14.37  .02278 1.0374 163.2 21.7  42d 159
2019 06 14 03  16 31 38.272   -34 44 01.29  .02284 1.0375 163.2 21.7  42d 159
2019 06 14 04  16 32 01.522   -34 44 47.62  .02291 1.0376 163.3 21.8  42d 159
2019 06 14 05  16 32 24.648   -34 45 33.35  .02298 1.0376 163.3 21.8  42d 159
2019 06 14 06  16 32 47.652   -34 46 18.51  .02304 1.0377 163.3 21.8  42d 159
2019 06 14 07  16 33 10.535   -34 47 03.10  .02311 1.0378 163.4 21.8  43d 159
2019 06 14 08  16 33 33.297   -34 47 47.11  .02318 1.0379 163.4 21.8  43d 159
2019 06 14 09  16 33 55.938   -34 48 30.57  .02325 1.0379 163.4 21.8  43d 159
2019 06 14 10  16 34 18.461   -34 49 13.47  .02332 1.0380 163.4 21.8  43d 159
2019 06 14 11  16 34 40.866   -34 49 55.82  .02338 1.0381 163.5 21.8  43d 159
2019 06 14 12  16 35 03.153   -34 50 37.63  .02345 1.0382 163.5 21.8  43d 159
2019 06 14 13  16 35 25.323   -34 51 18.90  .02352 1.0382 163.5 21.8  43d 159
2019 06 14 14  16 35 47.378   -34 51 59.64  .02359 1.0383 163.5 21.8  43d 159
2019 06 14 15  16 36 09.317   -34 52 39.86  .02365 1.0384 163.6 21.8  43d 159
2019 06 14 16  16 36 31.142   -34 53 19.56  .02372 1.0384 163.6 21.8  43d 159
2019 06 14 17  16 36 52.854   -34 53 58.74  .02379 1.0385 163.6 21.8  43d 159
2019 06 14 18  16 37 14.453   -34 54 37.43  .02386 1.0386 163.6 21.8  43d 159
2019 06 14 19  16 37 35.940   -34 55 15.60  .02393 1.0387 163.6 21.8  43d 159
2019 06 14 20  16 37 57.315   -34 55 53.29  .02399 1.0387 163.7 21.8  43d 159